Location: Anciles
(42.5833°N, 0.5167°E)
Time: 20:14:12
(UTC+00:00)

Cosmos 1943 Rocket - Pass Details

Date: 10 December 2019
Orbit: 812 x 844 km, 71.0° (Epoch: 18 January)

Event Time Altitude Azimuth Distance (km) Brightness Sun altitude
Rises 19:40:01 0° 332° (NNW) 3,401 5.7 -35.1°
Reaches altitude 10° 19:42:31 10° 328° (NNW) 2,459 4.9 -35.6°
Enters shadow 19:44:45 24° 321° (NW) 1,660 4.0 -36.0°
